When you browse on this site, cookies collect data to enhance your experience and personalize the content and advertising you see.
Visit our Privacy Policy to learn more. By continuing to use the site, you agree to this use of cookies and data.
  • In Portugal
  • List of Countries
  • For 7 days
  • Water Temperature
  • Weather Map
  • Weather Widgets
  • user-avatar
    Login

    Hourly Weather Prutz

    Today, 19 November, Tuesday

    Time Temperature Precipitation Wind Pressure Humidity
    00:00 -6°C° 0 mm 2 mps 628 mmHg 88%
    01:00 -6°C° 0 mm 2 mps 629 mmHg 87%
    02:00 -5°C° 0.1 mm 2 mps 629 mmHg 87%
    03:00 -5°C° 0.1 mm 2 mps 628 mmHg 88%
    04:00 -5°C° 0.1 mm 2 mps 628 mmHg 88%
    05:00 -6°C° 0 mm 3 mps 628 mmHg 88%
    06:00 -6°C° 0 mm 3 mps 628 mmHg 88%
    07:00 -6°C° 0 mm 3 mps 628 mmHg 88%
    08:00 -4°C° 0 mm 3 mps 629 mmHg 89%
    09:00 -2°C° 0 mm 3 mps 630 mmHg 89%
    10:00 0°C° 0 mm 3 mps 630 mmHg 89%
    11:00 +2°C° 0 mm 2 mps 630 mmHg 91%
    12:00 +2°C° 0 mm 2 mps 630 mmHg 92%
    13:00 +3°C° 0 mm 2 mps 630 mmHg 94%
    14:00 +2°C° 0 mm 2 mps 630 mmHg 94%
    15:00 +2°C° 0 mm 2 mps 630 mmHg 94%
    16:00 +1°C° 0 mm 2 mps 630 mmHg 94%
    17:00 -1°C° 0 mm 2 mps 630 mmHg 94%
    18:00 -1°C° 0 mm 2 mps 630 mmHg 94%
    19:00 -2°C° 0 mm 2 mps 630 mmHg 93%
    20:00 -2°C° 0 mm 2 mps 630 mmHg 93%
    21:00 -2°C° 0 mm 2 mps 630 mmHg 92%
    22:00 -2°C° 0 mm 2 mps 629 mmHg 92%
    23:00 -2°C° 0 mm 2 mps 629 mmHg 92%

    Tomorrow, 20 November, Wednesday

    Time Temperature Precipitation Wind Pressure Humidity
    00:00 -2°C° 0 mm 2 mps 629 mmHg 92%
    01:00 -2°C° 0 mm 2 mps 629 mmHg 92%
    02:00 -3°C° 0 mm 2 mps 629 mmHg 91%
    03:00 -3°C° 0 mm 2 mps 629 mmHg 91%
    04:00 -3°C° 0 mm 2 mps 628 mmHg 91%
    05:00 -3°C° 0 mm 2 mps 628 mmHg 90%
    06:00 -3°C° 0 mm 2 mps 628 mmHg 89%
    07:00 -3°C° 0 mm 2 mps 628 mmHg 88%
    08:00 -2°C° 0 mm 2 mps 628 mmHg 87%
    09:00 +2°C° 0 mm 1 mps 629 mmHg 87%
    10:00 +3°C° 0 mm 1 mps 629 mmHg 86%
    11:00 +4°C° 0 mm 1 mps 629 mmHg 88%
    12:00 +4°C° 0 mm 1 mps 629 mmHg 91%
    13:00 +5°C° 0 mm 1 mps 629 mmHg 93%
    14:00 +4°C° 0 mm 1 mps 629 mmHg 94%
    15:00 +3°C° 0 mm 1 mps 628 mmHg 94%
    16:00 +2°C° 0 mm 1 mps 628 mmHg 95%
    17:00 +1°C° 0 mm 1 mps 628 mmHg 92%
    18:00 0°C° 0 mm 1 mps 627 mmHg 90%
    19:00 -1°C° 0 mm 1 mps 627 mmHg 88%
    20:00 -1°C° 0 mm 1 mps 627 mmHg 85%
    21:00 -3°C° 0 mm 2 mps 627 mmHg 82%
    22:00 -3°C° 0 mm 2 mps 627 mmHg 80%
    23:00 -3°C° 0 mm 2 mps 627 mmHg 78%

    Day after tomorrow, 21 November, Thursday

    Time Temperature Precipitation Wind Pressure Humidity
    00:00 -4°C° 0 mm 2 mps 627 mmHg 77%
    01:00 -4°C° 0 mm 2 mps 627 mmHg 75%
    02:00 -4°C° 0 mm 2 mps 627 mmHg 74%
    03:00 -4°C° 0 mm 2 mps 626 mmHg 73%
    04:00 -4°C° 0 mm 2 mps 626 mmHg 73%
    05:00 -4°C° 0 mm 2 mps 626 mmHg 73%
    06:00 -4°C° 0 mm 2 mps 626 mmHg 73%
    07:00 -5°C° 0 mm 2 mps 626 mmHg 73%
    08:00 -3°C° 0 mm 2 mps 627 mmHg 75%
    09:00 -2°C° 0 mm 2 mps 627 mmHg 77%
    10:00 +1°C° 0 mm 2 mps 628 mmHg 79%
    11:00 +2°C° 0 mm 2 mps 628 mmHg 82%
    12:00 +2°C° 0 mm 2 mps 628 mmHg 85%
    13:00 +3°C° 0 mm 2 mps 628 mmHg 88%
    14:00 +2°C° 0 mm 2 mps 628 mmHg 88%
    15:00 +1°C° 0 mm 2 mps 627 mmHg 89%
    16:00 -1°C° 0 mm 2 mps 627 mmHg 90%
    17:00 -1°C° 0 mm 2 mps 627 mmHg 89%
    18:00 -2°C° 0 mm 2 mps 627 mmHg 89%
    19:00 -3°C° 0 mm 2 mps 627 mmHg 88%
    20:00 -3°C° 0 mm 2 mps 627 mmHg 88%
    21:00 -3°C° 0 mm 2 mps 627 mmHg 88%
    22:00 -3°C° 0 mm 2 mps 627 mmHg 88%
    23:00 -4°C° 0 mm 2 mps 627 mmHg 88%

    22 November, Friday

    Time Temperature Precipitation Wind Pressure Humidity
    00:00 -4°C° 0 mm 2 mps 627 mmHg 88%
    01:00 -4°C° 0 mm 2 mps 627 mmHg 88%
    02:00 -5°C° 0 mm 3 mps 627 mmHg 88%
    03:00 -6°C° 0 mm 3 mps 627 mmHg 87%
    04:00 -6°C° 0 mm 3 mps 627 mmHg 87%
    05:00 -6°C° 0 mm 3 mps 627 mmHg 87%
    06:00 -7°C° 0 mm 3 mps 627 mmHg 86%
    07:00 -7°C° 0 mm 3 mps 627 mmHg 85%
    08:00 -6°C° 0 mm 3 mps 627 mmHg 85%
    09:00 -4°C° 0 mm 3 mps 628 mmHg 85%
    10:00 -2°C° 0 mm 2 mps 628 mmHg 84%
    11:00 -1°C° 0 mm 3 mps 628 mmHg 84%
    12:00 0°C° 0 mm 3 mps 628 mmHg 85%
    13:00 +1°C° 0 mm 3 mps 628 mmHg 85%
    14:00 0°C° 0 mm 3 mps 627 mmHg 85%
    15:00 -1°C° 0 mm 3 mps 627 mmHg 86%
    16:00 -2°C° 0 mm 3 mps 626 mmHg 86%
    17:00 -4°C° 0 mm 3 mps 626 mmHg 87%
    18:00 -4°C° 0 mm 4 mps 626 mmHg 87%
    19:00 -5°C° 0 mm 4 mps 625 mmHg 87%
    20:00 -5°C° 0 mm 4 mps 625 mmHg 87%
    21:00 -5°C° 0 mm 4 mps 625 mmHg 87%
    22:00 -5°C° 0 mm 4 mps 625 mmHg 87%
    23:00 -5°C° 0 mm 4 mps 625 mmHg 87%

    23 November, Saturday

    Time Temperature Precipitation Wind Pressure Humidity
    00:00 -5°C° 0 mm 4 mps 625 mmHg 87%
    01:00 -7°C° 0 mm 4 mps 624 mmHg 87%
    02:00 -5°C° 0 mm 4 mps 624 mmHg 87%
    03:00 -5°C° 0 mm 4 mps 624 mmHg 87%
    04:00 -5°C° 0 mm 4 mps 624 mmHg 87%
    05:00 -5°C° 0 mm 4 mps 624 mmHg 87%
    06:00 -4°C° 0 mm 4 mps 624 mmHg 87%
    07:00 -4°C° 0 mm 4 mps 624 mmHg 87%
    08:00 -3°C° 0 mm 4 mps 624 mmHg 86%
    09:00 -2°C° 0 mm 4 mps 624 mmHg 86%
    10:00 -1°C° 0 mm 4 mps 624 mmHg 86%
    11:00 0°C° 0 mm 4 mps 624 mmHg 87%
    12:00 +1°C° 0 mm 4 mps 624 mmHg 88%
    13:00 +1°C° 0 mm 4 mps 624 mmHg 88%
    14:00 +1°C° 0 mm 4 mps 624 mmHg 88%
    15:00 0°C° 0 mm 4 mps 624 mmHg 88%
    16:00 0°C° 0 mm 4 mps 624 mmHg 88%
    17:00 -1°C° 0 mm 4 mps 624 mmHg 88%
    18:00 -2°C° 0 mm 4 mps 624 mmHg 88%
    19:00 -2°C° 0 mm 4 mps 625 mmHg 88%
    20:00 -1°C° 0 mm 3 mps 625 mmHg 88%
    21:00 -1°C° 0 mm 3 mps 626 mmHg 88%
    22:00 -1°C° 0 mm 3 mps 626 mmHg 88%
    23:00 -1°C° 0 mm 3 mps 626 mmHg 88%

    24 November, Sunday

    Time Temperature Precipitation Wind Pressure Humidity
    00:00 -1°C° 0 mm 3 mps 626 mmHg 88%
    01:00 -1°C° 0 mm 3 mps 627 mmHg 89%
    02:00 -1°C° 0 mm 3 mps 627 mmHg 88%
    03:00 -1°C° 0 mm 3 mps 627 mmHg 88%
    04:00 -2°C° 0 mm 3 mps 627 mmHg 88%
    05:00 -2°C° 0 mm 3 mps 628 mmHg 86%
    06:00 -2°C° 0 mm 2 mps 628 mmHg 85%
    07:00 -2°C° 0 mm 2 mps 628 mmHg 84%
    08:00 -1°C° 0 mm 2 mps 629 mmHg 84%
    09:00 +2°C° 0 mm 2 mps 630 mmHg 84%
    10:00 +4°C° 0 mm 1 mps 631 mmHg 83%
    11:00 +5°C° 0 mm 1 mps 631 mmHg 87%
    12:00 +5°C° 0 mm 1 mps 631 mmHg 90%
    13:00 +6°C° 0 mm 1 mps 631 mmHg 93%
    14:00 +5°C° 0 mm 1 mps 631 mmHg 92%
    15:00 +4°C° 0 mm 1 mps 631 mmHg 90%
    16:00 +3°C° 0 mm 1 mps 631 mmHg 89%
    17:00 +2°C° 0 mm 1 mps 631 mmHg 86%
    18:00 +1°C° 0 mm 1 mps 631 mmHg 84%
    19:00 +1°C° 0 mm 1 mps 631 mmHg 81%
    20:00 +1°C° 0 mm 1 mps 631 mmHg 79%
    21:00 0°C° 0 mm 1 mps 631 mmHg 77%
    22:00 0°C° 0 mm 1 mps 631 mmHg 75%
    23:00 0°C° 0 mm 1 mps 631 mmHg 73%
    Show more